Vertical_Velocity
-1 10 -0 -1 2 1 1 1 -0 -2 2 1 4 1 -2 2 1 0 -0 -2 -2 -1 -0 -0 0 2 -0 -0 0 -0 1 -4
12 10 8 -5 -1 1 0 1 4 2 9 3 2 -1 -0 3 2 -0 1 0 -1 -1 1 -1 -1 -1 -2 0 3 -0 -3 -1
-0 3 3 8 6 4 -3 4 2 -1 -5 6 3 -2 4 2 2 -1 2 1 -1 0 -1 -1 -2 -1 2 -0 -1 -2 -1 -2
-0 8 6 12 -8 4 11 20 7 7 9 -1 1 3 2 4 3 -4 2 1 -1 -1 -2 -3 -0 -1 -2 -1 -3 -4 -4 -1
-2 5 -2 47 0 -11 37 -0 3 -2 8 8 4 4 6 1 -2 0 3 0 -1 -0 -0 -0 0 -0 -2 -2 -2 -0 -4 4
-1 3 -1 0 6 17 7 -2 -1 6 1 8 10 7 1 -2 -6 1 -1 4 1 3 1 -0 -2 -3 -5 -3 1 -1 2 6
-1 2 -0 -2 -5 2 3 17 7 2 6 4 7 5 -2 -1 1 2 2 1 -0 1 -2 -0 -4 -2 -0 4 3 -4 -4 -6
4 7 3 8 7 4 7 1 -2 2 5 6 3 -4 1 -1 3 1 1 1 0 -1 2 -4 -1 -2 1 3 -1 -4 -0 -6
6 10 9 8 3 1 2 -3 -1 3 -4 -4 -4 2 1 0 1 2 1 1 -0 -4 5 -3 -1 0 3 -2 -2 -4 -2 -4
-1 -3 -2 -7 -7 0 2 1 5 -2 -1 0 2 1 2 -1 0 -1 2 -0 2 -1 0 0 -2 -2 1 -3 -0 1 -3 -7
0 0 -1 5 -1 -1 -2 -5 -4 -2 2 4 4 -2 1 0 4 2 -1 5 -3 1 1 -5 -1 -4 -0 0 -4 -1 -1 0
-5 -4 -4 -4 -3 -4 -4 1 2 3 5 -1 -3 -1 0 3 0 2 1 0 -4 5 -5 -5 -0 2 -4 1 -3 -1 -4 -6
0 -1 1 0 -1 2 -1 -0 -2 -0 3 -0 -4 5 3 1 2 3 -4 -2 -1 1 -4 -3 1 -1 -6 -12 -1 21 4 -10
-1 -3 -2 -0 -3 -2 -2 -2 -2 2 -1 2 -1 0 1 -3 -0 1 -4 1 -2 -1 -2 -4 1 1 -4 -4 1 -16 8 32
-0 -1 -3 -2 -2 -4 -3 -0 1 1 -1 1 0 1 3 -2 -2 3 -0 -1 3 -6 2 0 -1 2 -0 -4 -2 -3 -22 -46
-2 -2 -2 -2 -4 -3 -2 -0 1 -0 0 0 -5 -2 -3 -0 -4 -1 -2 1 1 -3 3 2 -5 -5 3 0 -4 -2 -3 2
-1 -2 -4 -3 -3 -4 -2 -2 -4 -0 0 -0 1 -0 -3 -3 1 1 -1 2 -2 -1 0 -4 -1 -2 -10 -6 3 7 8 3
-1 1 1 -1 -1 0 0 -2 -1 -1 -3 -6 -4 1 -5 -2 -3 0 4 -1 -0 -1 -1 -1 4 9 2 -5 -1 -5 -5 -6
1 1 -1 -2 -4 -4 -4 -2 -2 -3 -4 -0 -4 0 -0 1 3 14 34 6 2 0 11 4 -1 2 -0 2 2 1 6 1
1 2 2 -1 11 -6 -2 -4 -3 -0 -2 0 1 2 0 64 20 1 -2 -0 1 -0 1 23 10 2 2 -1 8 -6 3 1
Height
5784 5786 5788 5792 5795 5796 5798 5799 5798 5799 5801 5802 5804 5803 5802 5804 5808 5810 5811 5811 5812 5813 5815 5816 5817 5817 5818 5819 5819 5817 5816 5815
5777 5780 5783 5787 5789 5792 5793 5793 5792 5795 5795 5797 5798 5798 5798 5802 5805 5806 5807 5808 5810 5811 5814 5814 5816 5816 5817 5816 5816 5815 5815 5815
5775 5775 5778 5779 5783 5782 5786 5784 5786 5784 5790 5790 5791 5792 5794 5796 5798 5801 5805 5807 5809 5811 5812 5813 5814 5814 5814 5814 5814 5813 5811 5810
5771 5772 5774 5776 5776 5777 5778 5779 5779 5782 5784 5783 5784 5787 5789 5791 5794 5799 5803 5805 5807 5808 5810 5811 5811 5811 5811 5811 5810 5808 5806 5804
5766 5769 5770 5766 5772 5769 5770 5773 5776 5776 5776 5776 5778 5781 5784 5788 5790 5798 5801 5804 5806 5806 5808 5809 5809 5809 5808 5807 5805 5802 5800 5799
5761 5764 5766 5769 5770 5770 5768 5771 5771 5771 5773 5773 5777 5780 5781 5784 5791 5797 5800 5803 5804 5804 5806 5807 5806 5806 5805 5803 5800 5797 5797 5797
5756 5759 5761 5764 5766 5767 5767 5768 5767 5768 5769 5772 5776 5779 5781 5785 5791 5796 5799 5800 5802 5804 5804 5803 5802 5802 5801 5798 5799 5796 5793 5791
5754 5753 5755 5758 5760 5761 5761 5762 5761 5763 5768 5771 5775 5778 5783 5785 5790 5794 5797 5799 5799 5802 5800 5800 5798 5796 5797 5795 5793 5791 5789 5786
5751 5751 5753 5756 5756 5756 5756 5759 5763 5767 5769 5773 5775 5780 5784 5786 5788 5791 5794 5796 5797 5796 5795 5795 5794 5793 5792 5790 5789 5786 5784 5780
5749 5752 5752 5755 5757 5761 5762 5766 5768 5767 5768 5775 5780 5783 5784 5787 5787 5790 5792 5794 5794 5791 5792 5790 5790 5788 5786 5785 5783 5780 5777 5774
5755 5756 5757 5761 5761 5762 5764 5764 5765 5768 5773 5777 5780 5781 5784 5786 5788 5789 5790 5790 5790 5788 5788 5786 5785 5783 5782 5779 5776 5774 5771 5768
5759 5757 5759 5761 5762 5763 5764 5766 5769 5771 5774 5778 5778 5780 5783 5785 5785 5787 5786 5786 5786 5784 5783 5781 5780 5779 5776 5773 5770 5767 5763 5759
5759 5760 5761 5763 5765 5765 5766 5769 5770 5771 5774 5776 5777 5779 5781 5782 5782 5782 5783 5783 5779 5778 5777 5775 5773 5772 5768 5765 5761 5761 5756 5749
5762 5762 5764 5766 5767 5769 5769 5769 5769 5770 5771 5773 5776 5777 5779 5779 5778 5778 5777 5776 5774 5773 5770 5768 5766 5763 5760 5755 5750 5744 5740 5738
5761 5762 5763 5764 5765 5766 5767 5768 5767 5769 5771 5772 5773 5774 5774 5773 5773 5773 5771 5769 5769 5766 5762 5760 5758 5755 5751 5745 5738 5732 5724 5716
5762 5762 5763 5763 5765 5766 5767 5767 5768 5768 5769 5770 5770 5770 5770 5769 5768 5767 5766 5763 5761 5757 5754 5752 5748 5744 5740 5735 5728 5721 5715 5708
5761 5762 5762 5763 5763 5764 5764 5764 5764 5765 5766 5765 5764 5766 5766 5765 5761 5761 5757 5754 5751 5749 5746 5742 5737 5733 5727 5721 5716 5712 5707 5700
5759 5760 5760 5761 5761 5761 5761 5760 5761 5761 5761 5761 5761 5760 5758 5756 5754 5752 5750 5746 5744 5739 5736 5732 5727 5723 5718 5711 5706 5700 5695 5687
5757 5757 5757 5757 5757 5757 5757 5757 5757 5757 5756 5756 5755 5752 5750 5747 5746 5743 5740 5738 5737 5733 5729 5725 5721 5715 5709 5702 5696 5691 5683 5675
5752 5753 5753 5753 5754 5753 5752 5752 5751 5751 5751 5750 5748 5745 5741 5734 5740 5735 5734 5731 5728 5723 5719 5712 5710 5705 5697 5692 5682 5677 5671 5664